CDT,Max TemperatureF,Mean TemperatureF,Min TemperatureF,Max Dew PointF,MeanDew PointF,Min DewpointF,Max Humidity, Mean Humidity, Min Humidity, Max Sea Level PressureIn, Mean Sea Level PressureIn, Min Sea Level PressureIn, Max VisibilityMiles, Mean VisibilityMiles, Min VisibilityMiles, Max Wind SpeedMPH, Mean Wind SpeedMPH, Max Gust SpeedMPH,PrecipitationIn, CloudCover, Events, WindDirDegrees
2013-10-1,87,78,69,68,66,63,83,70,46,30.00,29.94,29.88,10,9,0,14,8,18,0.00,4,,135
2013-10-2,87,79,71,66,66,64,83,67,48,30.03,29.97,29.92,10,10,8,18,9,22,0.00,4,,154
2013-10-3,89,79,69,68,66,64,83,67,46,29.97,29.92,29.87,10,10,8,16,9,22,0.00,3,,165
2013-10-4,89,79,69,66,65,63,83,65,43,29.97,29.92,29.88,10,10,10,18,10,20,0.00,3,,163
2013-10-5,80,66,51,70,56,43,83,73,56,30.09,29.99,29.91,10,10,9,24,10,32,0.76,5,,303
2013-10-6,71,60,48,45,41,37,87,56,31,30.11,30.06,30.02,10,10,10,20,7,25,0.26,0,,310
2013-10-7,77,64,50,43,38,34,67,43,22,30.17,30.11,30.07,10,10,9,15,6,18,0.00,0,,350
2013-10-8,75,63,51,48,45,39,72,55,36,30.16,30.10,30.04,10,9,1,15,7,,0.00,0,,96
2013-10-9,80,66,51,54,49,45,77,60,37,30.14,30.07,30.03,10,10,5,12,8,,0.00,0,,125
2013-10-10,82,68,53,57,52,46,82,61,37,30.12,30.03,29.95,10,10,5,17,8,21,0.00,0,,130
2013-10-11,84,70,59,64,60,52,82,67,54,29.99,29.93,29.87,10,10,10,20,11,25,0.00,3,,152
2013-10-12,87,76,64,70,64,59,88,75,52,30.11,30.00,29.92,10,10,0,30,7,41,0.99,4,Thunderstorm,153
2013-10-13,75,70,64,64,62,61,88,77,65,30.26,30.18,30.11,10,9,0,15,7,21,0.00,6,,90
2013-10-14,69,66,62,64,60,55,88,79,68,30.20,30.09,29.99,10,9,3,15,10,17,0.27,7,,113
2013-10-15,75,65,53,66,60,48,88,81,73,30.06,29.98,29.94,10,10,5,20,11,23,0.94,7,,276
2013-10-16,55,53,51,52,48,46,88,79,77,30.10,30.05,30.01,10,9,3,20,11,24,0.30,8,,357
2013-10-17,69,56,44,50,44,37,82,65,40,30.14,30.06,30.01,10,10,10,9,5,,0.00,0,,297
2013-10-18,66,57,48,54,48,43,82,69,52,30.06,30.02,29.94,10,10,3,20,4,23,0.00,5,,114
2013-10-19,62,52,42,45,37,34,76,59,34,30.20,30.13,30.05,10,10,9,21,13,28,0.00,3,,336
2013-10-20,69,54,39,43,39,32,81,59,33,30.10,30.02,29.93,10,10,10,17,6,23,0.00,0,,159
2013-10-21,64,57,50,54,48,43,88,76,64,30.11,30.02,29.97,10,10,8,16,8,20,0.07,6,,75
2013-10-22,73,58,42,48,41,36,82,59,31,30.17,30.09,30.01,10,10,10,16,8,20,0.00,0,,306
2013-10-23,75,62,48,48,45,41,76,57,36,30.16,30.10,30.06,10,10,10,12,6,16,0.00,0,,133
2013-10-24,73,60,48,52,45,37,82,56,38,30.33,30.19,30.05,10,10,7,14,8,18,0.00,0,,4
2013-10-25,62,53,44,37,34,28,66,51,36,30.48,30.38,30.30,10,10,10,20,11,26,0.00,0,,101
2013-10-26,60,52,44,54,44,37,88,76,66,30.29,30.20,30.10,10,10,4,21,8,,2.20,5,Thunderstorm,104
2013-10-27,64,60,55,54,52,50,88,78,64,30.15,30.09,30.04,10,9,1,13,5,,0.00,7,,320
2013-10-28,73,63,55,61,55,50,88,76,64,30.17,30.10,30.06,10,10,10,14,7,16,0.00,6,,116
2013-10-29,77,70,64,64,61,57,88,75,65,30.14,30.09,30.04,10,10,10,18,12,23,0.00,6,,159
2013-10-30,71,68,64,64,60,57,83,77,64,30.07,29.99,29.86,10,10,5,22,13,31,0.29,6,,161
2013-10-31,75,63,51,64,52,43,88,64,31,29.88,29.76,29.68,10,10,3,28,11,37,0.02,3,,242